EW1296 Weather Reports


Display with metric or nautical units.
time (UTC)temp
F
wind
direction
speed
MPH
gust
MPH
rain 1hr
in
rain 24hr
in
rain mn
in
humidity
%
barometer
mb
20260509185516 61 113 1.0 3.0 0.03 0.04 0.04 83 1011.1
20260509185016 61 0.0 2.0 0.03 0.04 0.04 82 1011.0
20260509184516 61 338 1.0 3.0 0.03 0.04 0.04 82 1011.1
20260509184016 61 248 1.0 4.0 0.02 0.03 0.03 81 1012.0
20260509183537 61 270 2.0 5.0 0.01 0.02 0.02 81 1012.0
20260509183037 61 248 2.0 10.0 0.01 0.02 0.02 80 1011.6
20260509182516 62 135 1.0 5.0 0.01 0.02 0.02 80 1011.2
20260509182037 62 135 2.0 8.0 0.01 0.02 0.02 80 1011.5
20260509181516 62 0.0 2.0 0.00 0.01 0.01 81 1011.5
20260509181018 62 0.0 1.0 0.00 0.01 0.01 80 1011.1
20260509180517 62 0.0 0.0 0.00 0.01 0.01 81 1010.8
20260509180016 62 0.0 2.0 0.01 0.01 0.01 81 1010.6
20260509175516 62 0.0 3.0 0.01 0.01 0.01 81 1010.6
20260509175016 62 113 1.0 5.0 0.01 0.01 0.01 81 1010.9
20260509174516 62 113 3.0 11.0 0.01 0.01 0.01 81 1010.8
20260509174038 62 113 1.0 3.0 0.01 0.01 0.01 82 1011.0
20260509173537 62 135 1.0 4.0 0.01 0.01 0.01 82 1011.0
20260509173016 62 135 1.0 4.0 0.01 0.01 0.01 81 1011.0
20260509172516 62 135 1.0 4.0 0.01 0.01 0.01 81 1010.9
20260509172017 62 113 3.0 6.0 0.01 0.01 0.01 80 1010.9
20260509171537 62 113 2.0 5.0 0.01 0.01 0.01 79 1010.9
20260509171017 62 113 4.0 8.0 0.01 0.01 0.01 77 1011.1
20260509170516 62 135 3.0 8.0 0.01 0.01 0.01 75 1011.2
20260509170016 63 113 3.0 8.0 0.00 0.00 0.00 73 1011.1
20260509165517 64 113 5.0 11.0 0.00 0.00 0.00 71 1011.2
20260509165016 65 113 3.0 10.0 0.00 0.00 0.00 69 1011.2
20260509164516 66 113 2.0 8.0 0.00 0.00 0.00 67 1011.0
20260509164016 66 135 2.0 4.0 0.00 0.00 0.00 66 1011.1
20260509163516 66 135 1.0 3.0 0.00 0.00 0.00 64 1011.2
20260509163017 66 113 1.0 3.0 0.00 0.00 0.00 64 1011.2
20260509162516 66 113 2.0 6.0 0.00 0.00 0.00 63 1011.3
20260509162036 65 113 2.0 4.0 0.00 0.00 0.00 64 1011.4
20260509161516 65 113 3.0 6.0 0.00 0.00 0.00 64 1011.5
20260509161016 65 113 3.0 7.0 0.00 0.00 0.00 64 1011.6
20260509160537 64 113 2.0 8.0 0.00 0.00 0.00 64 1011.7
20260509160016 64 113 3.0 9.0 0.00 0.00 0.00 64 1011.8
20260509155517 64 113 2.0 6.0 0.00 0.00 0.00 64 1011.9
20260509155015 64 113 1.0 4.0 0.00 0.00 0.00 64 1012.0
20260509154516 64 0.0 3.0 0.00 0.00 0.00 65 1012.0
20260509154016 64 135 1.0 4.0 0.00 0.00 0.00 64 1012.1
20260509153516 64 113 1.0 3.0 0.00 0.00 0.00 63 1012.2
20260509153016 65 113 2.0 4.0 0.00 0.00 0.00 63 1012.3
20260509152516 65 113 1.0 6.0 0.00 0.00 0.00 63 1012.2
20260509152016 65 135 1.0 4.0 0.00 0.00 0.00 63 1012.2
20260509151516 64 248 1.0 3.0 0.00 0.00 0.00 64 1012.2
20260509151017 64 225 2.0 5.0 0.00 0.00 0.00 63 1012.2
20260509150516 65 225 3.0 7.0 0.00 0.00 0.00 63 1012.2
20260509150016 65 225 2.0 5.0 0.00 0.00 0.00 63 1012.3
20260509145516 65 225 1.0 5.0 0.00 0.00 0.00 63 1012.3
20260509145016 64 135 1.0 3.0 0.00 0.00 0.00 64 1012.3
20260509144537 64 225 1.0 3.0 0.00 0.00 0.00 64 1012.2
20260509144016 64 225 2.0 5.0 0.00 0.00 0.00 64 1012.3
20260509143516 64 135 2.0 7.0 0.00 0.00 0.00 64 1012.2
20260509143015 63 225 2.0 8.0 0.00 0.00 0.00 65 1012.3
20260509142516 63 225 2.0 7.0 0.00 0.00 0.00 64 1012.3
20260509142036 63 225 2.0 5.0 0.00 0.00 0.00 65 1012.2
20260509141515 62 225 1.0 4.0 0.00 0.00 0.00 66 1012.3
20260509141016 62 225 2.0 5.0 0.00 0.00 0.00 66 1012.3
20260509140516 62 0.0 4.0 0.00 0.00 0.00 67 1012.3
20260509140016 61 203 1.0 4.0 0.00 0.00 0.00 68 1012.3
20260509135517 61 203 1.0 3.0 0.00 0.00 0.00 68 1012.4
20260509135016 61 135 1.0 3.0 0.00 0.00 0.00 69 1012.3
20260509134516 61 225 1.0 5.0 0.00 0.00 0.00 68 1012.2
20260509134016 61 158 1.0 5.0 0.00 0.00 0.00 68 1012.4
20260509133516 61 225 1.0 4.0 0.00 0.00 0.00 68 1012.4
20260509133016 61 248 2.0 6.0 0.00 0.00 0.00 68 1012.3
20260509132515 61 158 1.0 3.0 0.00 0.00 0.00 68 1012.5
20260509132015 61 158 1.0 5.0 0.00 0.00 0.00 68 1012.5
20260509131515 61 158 1.0 4.0 0.00 0.00 0.00 69 1012.3
20260509131016 60 248 1.0 4.0 0.00 0.00 0.00 70 1012.5
20260509130517 60 113 1.0 5.0 0.00 0.00 0.00 70 1012.4
20260509130016 60 225 1.0 6.0 0.00 0.00 0.00 70 1012.6
20260509125515 60 113 1.0 3.0 0.00 0.00 0.00 70 1012.6
20260509125016 59 135 1.0 4.0 0.00 0.00 0.00 71 1012.8
20260509124515 59 225 1.0 4.0 0.00 0.00 0.00 71 1012.9
20260509124037 59 0.0 4.0 0.00 0.00 0.00 71 1012.9
20260509123515 59 0.0 2.0 0.00 0.00 0.00 71 1012.8
20260509123015 59 158 1.0 3.0 0.00 0.00 0.00 71 1012.9
20260509122517 59 0.0 3.0 0.00 0.00 0.00 72 1012.8
20260509122017 59 113 1.0 4.0 0.00 0.00 0.00 72 1012.8
20260509121516 58 135 1.0 3.0 0.00 0.00 0.00 72 1012.8
20260509121015 58 0.0 3.0 0.00 0.00 0.00 72 1012.8
20260509120537 58 135 1.0 3.0 0.00 0.00 0.00 72 1012.6
20260509120015 58 135 1.0 3.0 0.00 0.00 0.00 72 1012.8
20260509115515 58 0.0 2.0 0.00 0.00 0.00 72 1012.9
20260509115015 57 0.0 2.0 0.00 0.00 0.00 72 1012.9
20260509114515 57 0.0 2.0 0.00 0.00 0.00 72 1012.9
20260509114015 57 0.0 3.0 0.00 0.00 0.00 72 1012.9
20260509113516 57 0.0 5.0 0.00 0.00 0.00 72 1012.9
20260509113139 57 0.0 2.0 0.00 0.00 0.00 73 1012.8
20260509112515 57 203 1.0 3.0 0.00 0.00 0.00 73 1012.9
20260509112037 57 203 1.0 8.0 0.00 0.00 0.00 73 1012.8
20260509111536 57 225 1.0 8.0 0.00 0.00 0.00 73 1012.7
20260509111017 57 0.0 5.0 0.00 0.00 0.00 73 1012.8
20260509110515 57 203 1.0 5.0 0.00 0.00 0.00 73 1012.8
20260509110016 57 203 1.0 5.0 0.00 0.00 0.00 73 1012.8
20260509105515 57 225 2.0 6.0 0.00 0.00 0.00 73 1012.8
20260509105037 57 225 2.0 6.0 0.00 0.00 0.00 73 1012.7
20260509104517 57 225 1.0 5.0 0.00 0.00 0.00 73 1012.6
20260509104035 57 225 1.0 4.0 0.00 0.00 0.00 73 1012.6
20260509103515 57 203 1.0 3.0 0.00 0.00 0.00 72 1012.6
20260509103015 57 203 1.0 8.0 0.00 0.00 0.00 72 1012.6
20260509102518 57 225 1.0 5.0 0.00 0.00 0.00 72 1012.5
20260509102017 57 225 1.0 5.0 0.00 0.00 0.00 72 1012.4
20260509101517 57 158 1.0 4.0 0.00 0.00 0.00 71 1012.5
20260509101017 57 0.0 0.0 0.00 0.00 0.00 71 1012.4
20260509100517 57 0.0 1.0 0.00 0.00 0.00 71 1012.4
20260509100017 57 0.0 1.0 0.00 0.00 0.00 71 1012.3
20260509095537 57 0.0 4.0 0.00 0.00 0.00 71 1012.4
20260509095017 57 0.0 0.0 0.00 0.00 0.00 72 1012.4
20260509094517 57 0.0 4.0 0.00 0.00 0.00 72 1012.4
20260509094017 57 0.0 2.0 0.00 0.00 0.00 73 1012.4
20260509093517 57 113 1.0 2.0 0.00 0.00 0.00 73 1012.3
20260509093019 57 0.0 2.0 0.00 0.00 0.00 73 1012.2
20260509092518 57 0.0 2.0 0.00 0.00 0.00 72 1012.2
20260509092017 57 0.0 0.0 0.00 0.00 0.00 72 1012.2
20260509091538 57 0.0 0.0 0.00 0.00 0.00 72 1012.3
20260509091017 57 0.0 2.0 0.00 0.00 0.00 72 1012.4
20260509090517 57 0.0 2.0 0.00 0.00 0.00 72 1012.4
20260509090015 57 0.0 3.0 0.00 0.00 0.00 71 1012.3
20260509085518 57 113 1.0 3.0 0.00 0.00 0.00 71 1012.3
20260509085017 57 0.0 2.0 0.00 0.00 0.00 70 1012.4
20260509084537 57 135 1.0 3.0 0.00 0.00 0.00 69 1012.4
20260509084017 57 0.0 2.0 0.00 0.00 0.00 69 1012.3
20260509083518 57 0.0 0.0 0.00 0.00 0.00 69 1012.4
20260509083037 57 0.0 0.0 0.00 0.00 0.00 68 1012.4
20260509082517 57 0.0 0.0 0.00 0.00 0.00 68 1012.5
20260509082038 57 0.0 0.0 0.00 0.00 0.00 68 1012.4
20260509081518 57 0.0 0.0 0.00 0.00 0.00 68 1012.5
20260509081037 57 0.0 0.0 0.00 0.00 0.00 68 1012.5
20260509080517 57 0.0 0.0 0.00 0.00 0.00 68 1012.4
20260509080037 57 0.0 0.0 0.00 0.00 0.00 68 1012.3
20260509075518 57 0.0 0.0 0.00 0.00 0.00 68 1012.3
20260509075017 57 0.0 0.0 0.00 0.00 0.00 69 1012.4
20260509074518 57 0.0 0.0 0.00 0.00 0.00 69 1012.4
20260509074017 57 0.0 0.0 0.00 0.00 0.00 69 1012.5
20260509073518 57 0.0 2.0 0.00 0.00 0.00 69 1012.6
20260509073017 57 0.0 1.0 0.00 0.00 0.00 70 1012.6
20260509072518 57 0.0 2.0 0.00 0.00 0.00 70 1012.6
20260509072017 57 0.0 1.0 0.00 0.00 0.00 71 1012.6
20260509071518 57 0.0 2.0 0.00 0.00 0.00 71 1012.5
20260509071018 57 0.0 0.0 0.00 0.00 0.00 71 1012.5
20260509070517 57 0.0 1.0 0.00 0.00 0.00 71 1012.5
20260509070017 57 0.0 2.0 0.00 0.00 0.00 72 1012.6
20260509065538 57 0.0 2.0 0.00 0.00 0.00 72 1012.6
20260509065017 57 135 1.0 3.0 0.00 0.00 0.00 72 1012.5
20260509064517 57 0.0 4.0 0.00 0.00 0.00 72 1012.4
20260509064037 57 135 1.0 3.0 0.00 0.00 0.00 72 1012.6
20260509063518 57 0.0 1.0 0.00 0.00 0.00 71 1012.5
20260509063017 57 0.0 2.0 0.00 0.00 0.00 72 1012.5
20260509062518 58 135 1.0 3.0 0.00 0.00 0.00 72 1012.5
20260509062017 58 135 1.0 2.0 0.00 0.00 0.00 71 1012.7
20260509061517 58 0.0 2.0 0.00 0.00 0.00 71 1012.7
20260509061017 58 0.0 2.0 0.00 0.00 0.00 70 1012.9
20260509060517 58 0.0 2.0 0.00 0.00 0.00 70 1013.0
20260509060038 58 135 1.0 3.0 0.00 0.00 0.00 70 1013.1
20260509055517 58 135 1.0 2.0 0.00 0.00 0.00 70 1013.2
20260509055017 58 0.0 2.0 0.00 0.00 0.00 69 1013.3
20260509054517 58 0.0 2.0 0.00 0.00 0.00 68 1013.2
20260509054017 58 0.0 4.0 0.00 0.00 0.00 68 1013.2
20260509053517 58 135 1.0 4.0 0.00 0.00 0.00 67 1013.3
20260509053037 58 135 2.0 6.0 0.00 0.00 0.00 66 1013.3
20260509052517 58 135 1.0 4.0 0.00 0.00 0.00 66 1013.3
20260509052017 58 113 1.0 3.0 0.00 0.00 0.00 66 1013.2
20260509051516 58 135 1.0 3.0 0.00 0.00 0.00 65 1013.2
20260509051017 58 0.0 2.0 0.00 0.00 0.00 65 1013.2
20260509050517 58 0.0 0.0 0.00 0.00 0.00 65 1013.2
20260509050016 58 0.0 0.0 0.00 0.00 0.00 64 1013.1
20260509045517 57 0.0 0.0 0.00 0.00 0.00 64 1013.0
20260509045037 57 0.0 0.0 0.00 0.00 0.00 64 1012.9
20260509044518 58 0.0 0.0 0.00 0.00 0.00 63 1012.9
20260509044017 58 0.0 2.0 0.00 0.00 0.00 63 1013.0
20260509043537 58 0.0 0.0 0.00 0.00 0.00 63 1012.9
20260509043057 58 0.0 0.0 0.00 0.00 0.00 62 1013.0
20260509042517 58 0.0 0.0 0.00 0.00 0.00 62 1013.0
20260509042016 58 0.0 1.0 0.00 0.00 0.00 62 1013.0
20260509041517 58 0.0 0.0 0.00 0.00 0.00 62 1012.9
20260509041037 58 0.0 1.0 0.00 0.00 0.00 62 1012.9
20260509040517 58 0.0 0.0 0.00 0.00 0.00 62 1013.0
20260509040039 58 0.0 0.0 0.00 0.00 0.00 61 1013.0
20260509035538 58 0.0 0.0 0.00 0.00 0.00 61 1013.0
20260509035017 58 0.0 0.0 0.00 0.00 0.00 61 1013.1
20260509034538 58 0.0 0.0 0.00 0.00 0.00 61 1013.1
20260509034017 58 0.0 0.0 0.00 0.00 0.00 61 1013.1
20260509033517 58 0.0 1.0 0.00 0.00 0.00 61 1013.1
20260509033017 58 0.0 0.0 0.00 0.00 0.00 60 1013.1
20260509032518 58 0.0 0.0 0.00 0.00 0.00 60 1013.1
20260509032037 58 0.0 0.0 0.00 0.00 0.00 61 1013.2
20260509031517 58 0.0 0.0 0.00 0.00 0.00 61 1013.2
20260509031017 58 0.0 1.0 0.00 0.00 0.00 61 1013.2
20260509030517 58 0.0 0.0 0.00 0.00 0.00 61 1013.2
20260509030017 59 0.0 0.0 0.00 0.00 0.00 61 1013.2
20260509025517 59 0.0 1.0 0.00 0.00 0.00 61 1013.3
20260509025018 59 0.0 0.0 0.00 0.00 0.00 61 1013.4
20260509024518 59 0.0 1.0 0.00 0.00 0.00 61 1013.3
20260509024017 59 0.0 1.0 0.00 0.00 0.00 62 1013.4
20260509023517 59 0.0 3.0 0.00 0.00 0.00 62 1013.4
20260509023017 59 0.0 1.0 0.00 0.00 0.00 62 1013.4
20260509022517 59 0.0 3.0 0.00 0.00 0.00 61 1013.4
20260509022017 59 135 1.0 4.0 0.00 0.00 0.00 61 1013.3
20260509021515 59 135 1.0 3.0 0.00 0.00 0.00 60 1013.2
20260509021017 59 0.0 3.0 0.00 0.00 0.00 61 1013.3
20260509020517 59 0.0 2.0 0.00 0.00 0.00 61 1013.3
20260509020017 59 113 1.0 4.0 0.00 0.00 0.00 60 1013.2
20260509015517 59 135 1.0 5.0 0.00 0.00 0.00 60 1013.2
20260509015037 59 135 1.0 5.0 0.00 0.00 0.00 60 1013.0
20260509014517 59 0.0 2.0 0.00 0.00 0.00 60 1013.0
20260509014017 59 113 1.0 4.0 0.00 0.00 0.00 61 1013.0
20260509013517 59 135 1.0 6.0 0.00 0.00 0.00 60 1013.0
20260509013018 59 135 1.0 3.0 0.00 0.00 0.00 60 1012.9
20260509012517 59 135 1.0 4.0 0.00 0.00 0.00 60 1012.9
20260509012017 59 135 1.0 4.0 0.00 0.00 0.00 58 1012.8
20260509011518 60 135 2.0 7.0 0.00 0.00 0.00 57 1012.7
20260509011018 60 135 2.0 5.0 0.00 0.00 0.00 56 1012.6
20260509010538 60 135 3.0 7.0 0.00 0.00 0.00 54 1012.5
20260509010018 61 135 2.0 7.0 0.00 0.00 0.00 54 1012.4
20260509005517 61 135 3.0 10.0 0.00 0.00 0.00 52 1012.2
20260509005017 61 0.0 4.0 0.00 0.00 0.00 50 1012.1
20260509004517 61 90 1.0 3.0 0.00 0.00 0.00 49 1012.1
20260509004018 61 90 1.0 3.0 0.00 0.00 0.00 50 1012.0
20260509003517 61 0.0 3.0 0.00 0.00 0.00 50 1011.9
20260509003017 61 0.0 2.0 0.00 0.00 0.00 50 1011.8
20260509002538 61 0.0 2.0 0.00 0.00 0.00 50 1011.8
20260509002017 61 45 1.0 3.0 0.00 0.00 0.00 50 1011.7
20260509001518 61 45 1.0 3.0 0.00 0.00 0.00 49 1011.7
20260509001017 61 0.0 3.0 0.00 0.00 0.00 49 1011.8
20260509000518 61 45 1.0 3.0 0.00 0.00 0.00 49 1011.9
20260509000037 61 0.0 2.0 0.00 0.00 0.00 49 1011.8
20260508235517 61 0.0 2.0 0.00 0.00 0.00 49 1011.8
20260508235016 61 0.0 2.0 0.00 0.00 0.00 49 1011.8
20260508234517 62 45 1.0 2.0 0.00 0.00 0.00 49 1011.8
20260508234017 62 0.0 2.0 0.00 0.00 0.00 49 1011.8
20260508233600 62 338 1.0 4.0 0.00 0.00 0.00 48 1011.7
20260508233017 62 45 2.0 5.0 0.00 0.00 0.00 48 1011.6
20260508232538 62 45 1.0 4.0 0.00 0.00 0.00 47 1011.5
20260508232017 62 45 1.0 4.0 0.00 0.00 0.00 47 1011.5
20260508231538 62 45 2.0 6.0 0.00 0.00 0.00 47 1011.5
20260508231037 62 45 1.0 5.0 0.00 0.00 0.00 47 1011.4
20260508230517 62 338 2.0 4.0 0.00 0.00 0.00 47 1011.4
20260508230017 62 23 1.0 4.0 0.00 0.00 0.00 46 1011.4
20260508225518 63 0 2.0 5.0 0.00 0.00 0.00 46 1011.4
20260508225017 63 23 2.0 8.0 0.00 0.00 0.00 46 1011.4
20260508224517 63 23 2.0 5.0 0.00 0.00 0.00 46 1011.4
20260508224017 63 45 2.0 6.0 0.00 0.00 0.00 46 1011.4
20260508223517 63 315 2.0 6.0 0.00 0.00 0.00 46 1011.3
20260508223017 63 0 1.0 5.0 0.00 0.00 0.00 45 1011.4
20260508222517 63 338 1.0 4.0 0.00 0.00 0.00 46 1011.4
20260508222017 63 338 3.0 8.0 0.00 0.00 0.00 45 1011.4
20260508221517 63 0 2.0 8.0 0.00 0.00 0.00 44 1011.4
20260508221017 64 338 2.0 6.0 0.00 0.00 0.00 43 1011.4
20260508220517 64 338 2.0 8.0 0.00 0.00 0.00 43 1011.3
20260508220018 64 23 2.0 9.0 0.00 0.00 0.00 43 1011.2
20260508215516 64 315 4.0 9.0 0.00 0.00 0.00 41 1011.2
20260508215017 65 248 4.0 11.0 0.00 0.00 0.00 41 1011.3
20260508214516 65 315 4.0 11.0 0.00 0.00 0.00 40 1011.2
20260508214017 66 315 4.0 10.0 0.00 0.00 0.00 41 1011.3
20260508213518 65 315 4.0 10.0 0.00 0.00 0.00 40 1011.3
20260508213017 65 315 3.0 8.0 0.00 0.00 0.00 40 1011.3
20260508212517 65 315 5.0 11.0 0.00 0.00 0.00 39 1011.4
20260508212017 65 270 5.0 13.0 0.00 0.00 0.00 40 1011.4
20260508211517 64 315 5.0 12.0 0.00 0.00 0.00 40 1011.3
20260508211057 63 270 9.0 15.0 0.00 0.00 0.00 40 1011.6
20260508210518 64 270 6.0 14.0 0.00 0.00 0.00 40 1011.6
20260508210017 64 270 7.0 14.0 0.00 0.00 0.00 39 1011.6
20260508205517 64 248 6.0 14.0 0.00 0.00 0.00 39 1011.6
20260508205017 64 270 7.0 13.0 0.00 0.00 0.00 39 1011.4
20260508204538 63 270 8.0 16.0 0.00 0.00 0.00 39 1011.5
20260508204056 64 270 10.0 19.0 0.00 0.00 0.00 38 1011.5
20260508203517 64 270 8.0 17.0 0.00 0.00 0.00 38 1011.6
20260508203017 64 270 6.0 13.0 0.00 0.00 0.00 38 1011.5
20260508202537 64 270 9.0 16.0 0.00 0.00 0.00 38 1011.5
20260508202017 64 270 9.0 18.0 0.00 0.00 0.00 37 1011.3
20260508201517 64 248 9.0 20.0 0.00 0.00 0.00 37 1011.2
20260508201018 65 248 8.0 15.0 0.00 0.00 0.00 37 1011.3
20260508200518 65 270 9.0 14.0 0.00 0.00 0.00 36 1011.3
20260508200057 65 270 8.0 16.0 0.00 0.00 0.00 36 1011.3
20260508195537 66 248 8.0 14.0 0.00 0.00 0.00 36 1011.2
20260508195036 66 270 7.0 13.0 0.00 0.00 0.00 36 1011.1
20260508194517 66 270 6.0 12.0 0.00 0.00 0.00 36 1011.1
20260508194016 66 270 8.0 15.0 0.00 0.00 0.00 36 1011.1
20260508193516 66 315 6.0 14.0 0.00 0.00 0.00 35 1011.1
20260508193037 66 293 8.0 16.0 0.00 0.00 0.00 35 1011.0
20260508192516 65 270 10.0 15.0 0.00 0.00 0.00 35 1011.3
20260508192016 65 270 8.0 17.0 0.00 0.00 0.00 36 1011.5
20260508191517 65 270 6.0 12.0 0.00 0.00 0.00 36 1011.5
20260508191036 65 248 7.0 20.0 0.00 0.00 0.00 36 1011.6
20260508190516 64 270 7.0 14.0 0.00 0.00 0.00 37 1011.5
20260508190016 64 270 7.0 15.0 0.00 0.00 0.00 37 1011.7